Regional Weather Roundup
Issued by NWS Bismarck, ND

Home | Current Version | Previous Version | Text Only | Print | Product List | Glossary On
Versions: 1 2 3 4 5 6 7 8 9 10 11 12 13 14 15 16 17 18 19 20 21 22 23 24 25 26 27 28 29 30 31 32 33 34 35 36 37 38 39 40 41 42 43 44 45 46 47 48 49 50
000
ASUS43 KBIS 311820
RWRBIS

NWR BROADCAST TEXT
NATIONAL WEATHER SERVICE BISMARCK ND
1200 PM CST SAT JAN 31 2015

NOTE: "FAIR" INDICATES FEW OR NO CLOUDS BELOW 12,000 FEET WITH NO
SIGNIFICANT WEATHER AND/OR OBSTRUCTIONS TO VISIBILITY.


CITY           SKY/WX    TMP DP  RH WIND       PRES   REMARKS
WILLISTON      SNOW      10   5  80 NE13G23   30.31R VSB 1/2 WCI  -5
MINOT          LGT SNOW   4  -2  76 NE14      30.38S VSB 3/4 WCI -14
MINOT AFB      LGT SNOW   3   0  85 NE14      30.39S FOG     WCI -15
BISMARCK       CLOUDY    14   7  73 NE21      30.29S WCI  -4
DICKINSON      LGT SNOW  17  13  84 E21G26    30.14S FOG     WCI   0
GARRISON         N/A      8   0  69 E13G23    30.30F WCI  -8
HETTINGER ARPT FOG       19  17  92 E18       30.12F VSB 1/2 WCI   4
JAMESTOWN      CLOUDY    11   1  64 NE20      30.32S WCI  -7
BEACH          FLURRIES  19  19 100 MISG      30.11S
CARRINGTON     CLOUDY     7   0  72 MISG      30.36F
CROSBY         LGT SNOW   7   1  78 E14G22    30.38R WCI -10
HARVEY         FLURRIES   5  -2  72 NE20G26   30.38S WCI -15
HAZEN          MOCLDY    14   0  52 E16G26    30.29F WCI  -2
LINTON         MOCLDY    16  10  79 E20       30.24S WCI  -1
MANDAN         CLOUDY    10   7  85 E16G23    30.27R WCI  -7
OAKES            N/A     12   1  62 NE25      30.28F WCI  -8
RUGBY          FAIR       0  -4  85 E20       30.42S WCI -22
STANLEY        LGT SNOW   3   0  85 NE14G22   30.30S VSB 3/4 WCI -15
TIOGA          LGT SNOW   5   3  92 E21       30.33R VSB 3/4 WCI -16
WATFORD CITY   CLOUDY    10   5  79 E18G26    30.25R WCI  -8
$$

CITY           SKY/WX    TMP DP  RH WIND       PRES   REMARKS
GRAND FORKS    PTSUNNY    3  -7  63 N22G29    30.46F WCI -19
GRAND FORKS AF MOSUNNY    3  -9  57 N18G28    30.46S WCI -17
DEVILS LAKE    PTSUNNY    0 -11  60 NE17      30.40S WCI -21
FARGO          FAIR      13  -1  54 N18G25    30.37F WCI  -4
CANDO          FAIR      -2  -9  71 NE20      30.44F WCI -25
CAVALIER       CLOUDY    -4  -9  77 N16G25    30.53S HAZE    WCI -25
GWINNER        PTCLDY    14   1  57 NE23      30.30S WCI  -5
ROLLA          FAIR      -4 -11  71 NE21      30.42F WCI -28
WALHALLA         N/A     -4  -9  77 N18       30.54S HAZE    WCI -26
$$

CITY           SKY/WX    TMP DP  RH WIND       PRES   REMARKS
ABERDEEN       MOSUNNY   17   6  62 NE17      30.26S WCI   1
MOBRIDGE       CLOUDY    21  16  81 E16       30.19R WCI   7
BUFFALO          N/A     22  20  92 E16       29.96F WCI   8
RAPID CITY     FOG       26  26 100 SE10      30.02S VSB 1/4 WCI  16
GLASGOW        SNOW      14   8  77 NE23G31   30.21R VSB 1/2 WCI  -5
SIDNEY         CLOUDY    16  10  79 NE18G24   30.25S WCI  -1
WOLF POINT     SNOW      14   9  80 NE28G36   30.24R VSB 1/2 WCI  -6
GLENDIVE       CLOUDY    19  18  93 NE16      30.13S WCI   5
MILES CITY     CLOUDY    29  25  85 NE10      30.01R WCI  20
BAKER          CLOUDY    21  19  92 E22G31    30.05S FOG     WCI   5
$$

CITY           SKY/WX    TMP DP  RH WIND       PRES   REMARKS
BILLINGS       CLOUDY    31  24  75 NE22G30   30.00R WCI  18
GREAT FALLS    LGT SNOW  16  13  88 NW15G26   30.23R VSB 1   WCI   1
REGINA         MOSUNNY    0  -9  65 E14       30.46R WCI -19
ESTEVAN        LGT SNOW N/A N/A N/A E15G22      N/A  DRFTSNOW
$$




USA.gov is the U.S. government's official web portal to all federal, state and local government web resources and services.